EW0822 Weather Reports


time (UTC)temp
C
wind
direction
speed
KPH
gust
KPH
rain 1hr
cm
rain 24hr
cm
rain mn
cm
humidity
%
barometer
mb
20260504044544 11 53 0.0 0.0 0.00 0.18 0.00 75 1011.9
20260504043043 11 52 0.0 0.0 0.00 0.18 0.00 75 1011.9
20260504041543 11 53 0.0 3.2 0.00 0.18 0.00 75 1012.0
20260504040042 11 54 0.0 3.2 0.00 0.18 0.00 75 1011.9
20260504034544 11 59 0.0 0.0 0.00 0.18 0.00 75 1012.0
20260504033036 11 58 0.0 0.0 0.00 0.18 0.00 75 1012.1
20260504031536 12 57 0.0 0.0 0.00 0.18 0.00 75 1012.1
20260504030037 12 72 0.0 0.0 0.00 0.18 0.00 76 1012.1
20260504024537 12 73 0.0 0.0 0.00 0.18 0.00 75 1012.1
20260504023033 12 74 0.0 0.0 0.00 0.18 0.00 75 1012.2
20260504021532 12 74 0.0 0.0 0.00 0.18 0.00 75 1012.1
20260504020037 12 74 0.0 0.0 0.00 0.18 0.00 76 1012.1
20260504014532 12 74 0.0 0.0 0.00 0.18 0.00 76 1012.1
20260504013033 12 74 0.0 0.0 0.00 0.18 0.00 76 1012.1
20260504011529 12 74 0.0 0.0 0.00 0.18 0.00 76 1012.1
20260504010027 12 75 0.0 0.0 0.00 0.18 0.00 76 1012.1
20260504004526 12 76 0.0 0.0 0.00 0.18 0.00 76 1012.0
20260504003025 12 76 0.0 0.0 0.00 0.18 0.00 76 1012.1
20260504001533 12 77 0.0 0.0 0.00 0.18 0.00 76 1012.0
20260504000024 12 78 0.0 0.0 0.00 0.18 0.00 75 1012.1
20260503234523 12 78 0.0 0.0 0.00 0.18 0.00 75 1012.2
20260503233022 12 78 0.0 0.0 0.00 0.18 0.00 75 1012.1
20260503231520 12 78 0.0 0.0 0.00 0.18 0.00 76 1012.0
20260503230034 13 78 0.0 0.0 0.00 0.18 0.00 76 1012.0
20260503224515 13 78 0.0 0.0 0.00 0.18 0.00 76 1011.9
20260503223012 13 78 0.0 0.0 0.00 0.18 0.00 76 1012.1
20260503221510 14 78 0.0 0.0 0.00 0.18 0.00 76 1012.1
20260503220011 14 78 0.0 0.0 0.00 0.18 0.18 76 1012.0
20260503214524 14 78 0.0 0.0 0.00 0.18 0.18 76 1011.9
20260503213007 14 80 0.0 0.0 0.00 0.18 0.18 76 1012.0
20260503211507 14 81 0.0 0.0 0.00 0.18 0.18 76 1012.1
20260503210007 14 80 0.0 0.0 0.00 0.18 0.18 76 1012.0
20260503204506 14 80 0.0 0.0 0.00 0.18 0.18 76 1011.8
20260503203010 14 81 0.0 0.0 0.00 0.18 0.18 76 1011.9
20260503201505 14 80 0.0 4.8 0.00 0.18 0.18 75 1012.0
20260503200005 15 67 0.0 0.0 0.00 0.18 0.18 75 1011.9
20260503194508 15 61 0.0 1.6 0.00 0.18 0.18 74 1011.9
20260503193004 15 59 0.0 0.0 0.00 0.18 0.18 73 1011.9
20260503191509 15 57 0.0 0.0 0.00 0.18 0.18 73 1011.8
20260503190003 15 57 0.0 0.0 0.00 0.18 0.18 73 1011.7
20260503184502 15 57 0.0 0.0 0.00 0.18 0.18 72 1011.6
20260503183002 15 57 0.0 0.0 0.00 0.18 0.18 72 1011.4
20260503181501 15 57 0.0 0.0 0.00 0.18 0.18 71 1011.3
20260503180005 15 54 0.0 0.0 0.00 0.20 0.18 71 1011.2
20260503174605 15 52 0.0 0.0 0.00 0.20 0.18 71 1011.1
20260503173106 15 51 0.0 0.0 0.00 0.20 0.18 71 1011.3
20260503171600 15 49 0.0 0.0 0.00 0.20 0.18 72 1011.3
20260503170117 15 64 0.0 0.0 0.03 0.20 0.18 72 1011.2
20260503160108 16 163 0.0 0.0 0.08 0.18 0.15 74 1011.5
20260503081532 20 59 0.0 8.0 0.00 0.03 0.00 46 1011.7